TITAN 3C TRANSTAGE DEB, 2050

Orbit data source: Space-Track

TITAN 3C TRANSTAGE DEB, 2050 is space debris in LEO originally from a launch on Fri, 15 Oct 1965 UTC launched from the Air Force Eastern Test Range (AFETR). Debris objects in space refer to the collection of defunct objects orbiting the Earth. Examples of debris include non-operational satellites, rocket bodies, and fragments generated from explosions, collisions, or faulty payload assembly.

Loading next visibility...
Identifier
2050, 1965-082JL
Orbit
LEO
Country
Flag of USUS
Related business
Manufacturer
Unknown
Mission
Spacecraft
Bus & Motor
Unknown
Mass
Unknown
Launch date (UTC)
1965-10-15 (60 years ago)
Launch vehicle
Unknown
Launch site
Air Force Eastern Test Range (AFETR)
Object type
Payload
Rocket body
Debris
Shape & HBR
Unknown shape, 0.2 m
Radar Cross Section
Small (<0.1 m²)

Expand to show TLE details & history
Last TLE update: 23 hours ago

TLE from 23 hours ago
0 TITAN 3C TRANSTAGE DEB
1 02050U 65082JL  25306.15607035  .00001105  00000-0  25252-3 0  9997
2 02050  32.2636 116.9341 0083503 233.8286 125.4611 14.51313572125625
Epoch: 2025-11-02T03:44Z
TLE epoch observation values (Epoch: 2025-11-02T03:44:44.478Z)
Latitude
0.00001°
Longitude
19.07295°
Altitude
754.741 km
Speed
7.461 km/s
True Right ascension
07h 47m 44s
True Declination
0° 00' 00"
Sunlit
Object was in daylight at epoch
Visualization orbit readout
Latitude
Unknown
Longitude
Unknown
Altitude
Unknown
Speed
Unknown
Apparent Right ascension
Unknown
Apparent Declination
Unknown
Sunlit
N/A
Visualization observer readout
Local Sidereal Time
22:19:32
Azimuth
Unknown
Elevation
Unknown
Doppler factor
Unknown
Orbital elements
Apogee altitude
784.232 km
Perigee altitude
665.607 km
Semi-major axis
7,103.056 km
Eccentricity
0.00835
Inclination
32.2636°
RAAN
116.9341°
Arg. of periapsis
233.8286°
True anomaly
126.23577°
Mean anomaly
125.4611°
Eccentric anomaly
125.8489°
Mean motion
3.62556 °/min
Orbital period
99.29 mins
BSTAR
0.00025252

Documentation

Showing up to 5 results
|